Powrót do katalogu

OV1-4 R/B

AktywnyLEO
NORAD 2124·ROCKET BODY·🇺🇸 United States

Wystrzelony Mar 30, 1966 z Vandenberg Space Force Base

Loading…

Następne Przeloty (najbliższe 24 godziny)

TLE

ŚwieżeSource: Space-Track

Epoka: Sep 14, 2026, 14:09 UTC

1 02124U 66025D   26257.58988573  .00000332  00000-0  49509-4 0  9992
2 02124 144.5093 147.6238 0080273  27.5756 332.9163 13.87854219 64027

Śledź OV1-4 R/B w czasie rzeczywistym z AllMySat

Download on the App Store